Regional Weather Roundup
Issued by NWS

Home | Current Version | Previous Version | Graphics & Text | Print | Product List | Glossary On
Versions: 1 2 3 4 5 6 7 8 9 10 11 12 13 14 15 16 17 18 19 20 21 22 23 24 25 26 27 28 29 30 31 32 33 34 35 36 37 38 39 40 41 42 43 44 45 46 47 48 49 50
172
ASUS44 KMEG 280800
RWRTN
TENNESSEE HOURLY STATE WEATHER ROUNDUP
NATIONAL WEATHER SERVICE MEMPHIS TN
200 AM CST TUE FEB 28 2017

TNZ002-004-019-021-049-052-054-088>092-280900-
WEST TENNESSEE

CITY           SKY/WX    TMP DP  RH WIND       PRES   REMARKS
MEMPHIS INTL   CLOUDY    59  55  87 S15       30.04F
NWS MEMPHIS      N/A     58 N/A N/A MISG        N/A
JACKSON        CLOUDY    57  54  89 S9G17     30.07F
UNION CITY     CLOUDY    55  55 100 CALM      30.04F
PARIS          MOCLDY    54  48  82 S10       30.07S
$$

TNZ008-025-027-028-033-062-065-066-280900-
NORTH MIDDLE TENNESSEE

CITY           SKY/WX    TMP DP  RH WIND       PRES   REMARKS
NASHVILLE      CLOUDY    54  49  83 S13       30.13F
CLARKSVILLE    CLOUDY    53  47  79 S9        30.08F
SMYRNA         CLOUDY    54  50  86 S7        30.16F
CROSSVILLE     PTCLDY    50  46  86 S7        30.21F
$$

TNZ061-075-076-078-094-096-097-280900-
SOUTH MIDDLE TENNESSEE

CITY           SKY/WX    TMP DP  RH WIND       PRES   REMARKS
TULLAHOMA      CLEAR     48  46  93 SE7       30.17F
WINCHESTER     PTCLDY    52  48  87 S12       30.19F
MCMINNVILLE    CLEAR     48  48 100 SE3       30.15F
COLUMBIA       CLOUDY   N/A N/A N/A S10       30.12F
SHELBYVILLE    PTCLDY    52  48  87 S6        30.17F
$$

TNZ017-018-042-046-047-280900-
NORTHEAST TENNESSEE

CITY           SKY/WX    TMP DP  RH WIND       PRES   REMARKS
TRI CITIES     CLEAR     39  35  86 CALM      30.27F
$$

TNZ012-013-036-069-073-074-280900-
CENTRAL EAST TENNESSEE

CITY           SKY/WX    TMP DP  RH WIND       PRES   REMARKS
KNOXVILLE      PTCLDY    42  37  82 NE6       30.22F
OAK RIDGE      CLEAR     42  38  85 CALM      30.25F
GATLINBURG     CLEAR     34  30  86 CALM      30.25F
$$

TNZ083-085-099-280900-
SOUTHEAST TENNESSEE

CITY           SKY/WX    TMP DP  RH WIND       PRES   REMARKS
CHATTANOOGA    CLOUDY    47  44  90 NW3       30.25F
$$

SKY/WX REPORTED AS FAIR MEANS FEW OR NO CLOUDS BELOW
12 THOUSAND FEET.





USA.gov is the U.S. government's official web portal to all federal, state and local government web resources and services.